Simultaneous Nadir Overpasses (SNOs) Predictions

Prediction of SNOs between GOES-15 and METOP-B Satellite Orbit:

Table of predicted SNOs for the next 14.0 days since TLE Epoch: 7/2/2022
Index Date Time (GOES-15) GOES-15 Lat,Lon METOP-B Lat,Lon Distance(km) Time Diff (sec)
1 07/02/2022 06:09:07 0.18,-128.46 -0.04,-129.42 109.96 80
2 07/03/2022 05:45:49 0.21,-128.46 1.13,-124.44 458.13 80
3 07/04/2022 18:07:20 -0.18,-128.49 -0.09,-129.00 57.39 80
4 07/07/2022 06:05:40 0.17,-128.44 0.12,-128.59 17.30 80
5 07/09/2022 18:01:13 -0.17,-128.45 -0.25,-128.16 33.79 80
6 07/11/2022 06:22:52 0.13,-128.40 -0.82,-132.75 494.95 80
7 07/12/2022 05:59:32 0.16,-128.38 0.29,-127.75 71.59 80
8 07/13/2022 18:21:04 -0.12,-128.39 0.75,-132.31 446.87 80
9 07/14/2022 17:57:44 -0.15,-128.37 -0.37,-127.32 119.64 80
